Location: Nijmegen RU
(51.8233°N, 354.1314°E)
Time: 01:04:36
(UTC+01:00)

N. Korean satellite - Visible Passes

Search period start: 20 February 2019 00:00
Search period end: 02 March 2019 00:00
Orbit: 457 x 510 km, 97.2° (Epoch: 18 February)

Date Brightness Start Highest point End Pass type
(mag) Time Alt. Az. Time Alt. Az. Time Alt. Az.
20 Feb 8.7 07:09:04 10° NNE 07:12:10 29° E 07:15:14 10° SSE visible
20 Feb 9.2 19:23:22 10° SSW 19:26:33 28° W 19:29:42 10° NW visible
21 Feb 9.8 06:44:56 10° NE 06:47:14 16° E 06:49:30 10° SE visible
23 Feb 7.6 07:28:03 10° NNE 07:31:27 48° E 07:34:47 10° S visible
23 Feb 10.0 19:43:21 10° SW 19:45:53 18° W 19:48:24 10° NW visible
24 Feb 9.0 07:03:36 10° NE 07:06:34 26° E 07:09:30 10° SSE visible
25 Feb 9.9 06:39:36 10° NE 06:41:36 14° E 06:43:35 10° SE visible
26 Feb 10.5 20:04:08 10° WSW 20:05:15 11° W 20:06:22 10° WNW visible
27 Feb 8.0 07:22:30 10° NNE 07:25:49 42° E 07:29:05 10° S visible
27 Feb 9.9 19:37:35 10° SW 19:40:15 20° W 19:42:56 10° NW visible
28 Feb 9.3 06:58:07 10° NE 07:00:55 23° E 07:03:41 10° SSE visible
01 Mar 10.1 06:34:19 10° ENE 06:35:55 13° E 06:37:32 10° ESE visible
